Location: Darr Branch
(32.1532°N, 97.3853°W)
Time: 10:32:36
(UTC+00:00)

Cosmos 1975 Rocket - Pass Details

Date: 18 November 2025
Orbit: 597 x 626 km, 82.5° (Epoch: 07 December)

Event Time Altitude Azimuth Distance (km) Brightness Sun altitude
Rises 12:23:41 0° 177° (S) 2,833 6.7 -8.4°
Reaches altitude 10° 12:25:54 10° 174° (S) 1,932 5.9 -7.9°
Maximum altitude 12:30:07 62° 94° (E) 677 3.6 -7.1°
Drops below altitude 10° 12:34:20 10° 14° (NNE) 1,939 5.6 -6.2°
Sets 12:36:34 0° 11° (N) 2,845 6.4 -5.8°
